Starlink 30067

operational
NORAD ID: 56693 Int'l Des: 2023-067 Owner: SPXS Country: US Constellation: starlink
LEOCIRCULAR

Starlink 30067について

説明を読み込み中...

リアルタイム位置

3D地球を読み込み中...

次回通過

高度履歴

Altitude vs Time

uPlot chart will show altitude changes over time

軌道要素

1 56693U 23067F 25305.56046968 -.00000105 00000-0 73190-5 0 9998
2 56693 43.0040 250.8898 0001266 272.2967 87.7730 15.02530960136386
Epoch: Nov 1, 2025 • Age: 10 hours

現在のステータス

高度 562.3 km
速度 7.59 km/s
衛星直下点 39.38°N, 26.77°W
打ち上げ日 May 19, 2023
運用期間 2.4 years
タイプ internet

技術仕様

分類 Payload
質量 730.00 kg
乾燥質量 700.00 kg
総質量 730.00 kg
長さ 0.30 m
直径 4.10 m
スパン 29.00 m
形状 Box + pan
製造者 SPXS
バスタイプ Starlink V2M
フェーズステータス In Orbit
所有者/国 SPXS/US

大規模コンステレーション

Loading constellations...